HAWK-3A (48957 NORAD) Tracking and Keplerian Element Data

This shows tracking and keplerian element data for the satellite.

Feedback or suggestion? Click here.




ElementValue
Catalog48957
NameHAWK-3A
Epoch Orbit1396
Epoch Day269.10456157
Epoch Year2021
RAAN36.7386
Inclination97.5215
Eccentricity0.0015971
Argument of Perigee298.8304
Mean Anonmoly61.1324
Mean Motion15.13909009
Decay Rate1.47E-05
L11 48957U 21059CG 21269.10456157 .00001470 00000-0 84633-4 0 9999
L22 48957 97.5215 36.7386 0015971 298.8304 61.1324 15.13909009 13967

Live tracking and technical data element details for HAWK-3A (NORAD 48957). HAWK-3A can be tracked NOW for your location showing map with azimuth and elevation plus other details from your city location.

Track the satellite on the map from your city or location and see movement details for azimuth, elevation, latitude, longitude, range, height, and movement on the map or in text.







IsCatalogInMostPopularTable: catalog: 48957, numindb: 23
Update: records affected: 1



GetName: 48957 HAWK-3A

Hit Count: updated at: Sun, 26 Sep 2021 16:42:03 GMT